Tokyo, Japan

11:04 PM JST on December 12, 2017 (GMT +0900)
Tokyo (Haneda) International

Weather History for RJTT - May, 2017

Change the Weather History Date:

Friday, May 19, 2017

  Actual Average Record
Temperature  
Mean Temperature 68 °F -  
Max Temperature 77 °F 73 °F 77 °F (2005)
Min Temperature 60 °F 62 °F 44 °F (1999)
Cooling Degree Days 4    
Growing Degree Days 18 (Base 50)    
Moisture  
Dew Point 60 °F    
Average Humidity 81    
Maximum Humidity 100    
Minimum Humidity 47    
Precipitation  
Precipitation 0.00 in - - ()
Sea Level Pressure  
Sea Level Pressure 30.00 in    
Wind  
Wind Speed 6 mph ()    
Max Wind Speed 18 mph    
Max Gust Speed -    
Visibility 5.0 miles    
Events      
Averages and records for this station are not official NWS values.
T = Trace of Precipitation, MM = Missing Value Source: Averaged Metar Reports

Daily Weather History Graph

Daily Weather History Graph

Search for Another Location

Airport or City:

Trip Planner

Search our weather history database for the weather conditions in past years. The results will help you decide how hot, cold, wet, or windy it might be!

Date:

Astronomy

May. 19, 2017 Rise Set
Actual Time 4:33 AM JST 6:41 PM JST
Civil Twilight 4:04 AM JST 7:10 PM JST
Nautical Twilight 3:30 AM JST 7:45 PM JST
Astronomical Twilight 2:52 AM JST 8:23 PM JST
Moon 12:16 AM JST (5/19) 11:23 AM JST (5/19)
Length of Visible Light 15h 05m
Length of Day
14h 08m
Waning Gibbous, 49% of the Moon is Illuminated
May 19
Waning Gibbous
May 26
New
Jun 1
First Quarter
Jun 9
Full
Jun 17
Last Quarter

Hourly Weather History & Observations

Time (JST) Temp. Dew Point Humidity Pressure Visibility Wind Dir Wind Speed Gust Speed Precip Events Conditions
12:00 AM 62.6 °F 60.8 °F 94% 30.01 in 6.2 mi East 2.3 mph - N/A   Scattered Clouds
12:30 AM 62.6 °F 60.8 °F 94% 30.01 in 6.2 mi SE 2.3 mph - N/A   Scattered Clouds
1:00 AM 62.6 °F 60.8 °F 94% 29.98 in 6.2 mi SE 2.3 mph - N/A   Partly Cloudy
1:30 AM 62.6 °F 60.8 °F 94% 29.98 in 6.2 mi SE 3.5 mph - N/A   Partly Cloudy
2:00 AM 62.6 °F 60.8 °F 94% 29.98 in 6.2 mi SE 2.3 mph - N/A   Partly Cloudy
2:30 AM 60.8 °F 60.8 °F 100% 30.01 in 5.6 mi SSE 2.3 mph - N/A   Partly Cloudy
3:00 AM 60.8 °F 60.8 °F 100% 30.01 in 5.6 mi Variable 1.2 mph - N/A   Scattered Clouds
3:30 AM 62.6 °F 60.8 °F 94% 30.01 in 5.6 mi West 2.3 mph - N/A   Mostly Cloudy
3:40 AM 62.6 °F 60.8 °F 94% 30.01 in 5.6 mi NW 2.3 mph - N/A   Scattered Clouds
4:00 AM 62.6 °F 60.8 °F 94% 30.01 in 4.3 mi NNW 2.3 mph - N/A   Partly Cloudy
4:05 AM 62.6 °F 60.8 °F 94% 30.01 in 3.1 mi NNW 3.5 mph - N/A   Partly Cloudy
4:15 AM 60.8 °F 60.8 °F 100% 30.01 in 2.8 mi NW 3.5 mph - N/A   Partly Cloudy
4:30 AM 60.8 °F 60.8 °F 100% 30.01 in 2.8 mi Variable 2.3 mph - N/A   Partly Cloudy
4:34 AM 60.8 °F 60.8 °F 100% 30.01 in 3.7 mi Variable 2.3 mph - N/A   Partly Cloudy
5:00 AM 60.8 °F 60.8 °F 100% 30.01 in 3.7 mi West 2.3 mph - N/A   Partly Cloudy
5:18 AM 60.8 °F 60.8 °F 100% 30.01 in 3.1 mi West 4.6 mph - N/A   Partly Cloudy
5:30 AM 60.8 °F 60.8 °F 100% 30.01 in 3.1 mi West 5.8 mph - N/A   Partly Cloudy
5:46 AM 62.6 °F 60.8 °F 94% 30.01 in 2.8 mi West 3.5 mph - N/A   Partly Cloudy
6:00 AM 62.6 °F 60.8 °F 94% 30.01 in 2.8 mi WSW 5.8 mph - N/A   Partly Cloudy
6:30 AM 62.6 °F 60.8 °F 94% 30.04 in 3.7 mi West 3.5 mph - N/A   Partly Cloudy
7:00 AM 64.4 °F 60.8 °F 88% 30.04 in 3.7 mi Variable 1.2 mph - N/A   Partly Cloudy
7:30 AM 64.4 °F 60.8 °F 88% 30.04 in 3.7 mi East 3.5 mph - N/A   Scattered Clouds
8:00 AM 64.4 °F 62.6 °F 94% 30.04 in 3.7 mi East 5.8 mph - N/A   Partly Cloudy
8:11 AM 64.4 °F 62.6 °F 94% 30.04 in 3.1 mi East 5.8 mph - N/A   Partly Cloudy
8:20 AM 66.2 °F 62.6 °F 88% 30.04 in 2.8 mi East 6.9 mph - N/A   Partly Cloudy
8:30 AM 66.2 °F 62.6 °F 88% 30.04 in 2.8 mi East 5.8 mph - N/A   Partly Cloudy
8:44 AM 66.2 °F 62.6 °F 88% 30.04 in 3.1 mi East 5.8 mph - N/A   Partly Cloudy
9:00 AM 66.2 °F 62.6 °F 88% 30.04 in 3.1 mi ESE 6.9 mph - N/A   Partly Cloudy
9:30 AM 66.2 °F 62.6 °F 88% 30.04 in 3.1 mi ESE 8.1 mph - N/A   Partly Cloudy
10:00 AM 68.0 °F 62.6 °F 83% 30.04 in - ESE 6.9 mph - N/A   Partly Cloudy
10:30 AM 69.8 °F 62.6 °F 78% 30.04 in - ESE 8.1 mph - N/A   Partly Cloudy
10:50 AM 69.8 °F 60.8 °F 73% 30.04 in 4.3 mi ESE 8.1 mph - N/A   Partly Cloudy
11:00 AM 69.8 °F 60.8 °F 73% 30.04 in 4.3 mi ESE 8.1 mph - N/A   Partly Cloudy
11:30 AM 73.4 °F 62.6 °F 69% 30.01 in 6.2 mi ESE 10.4 mph - N/A   Partly Cloudy
12:00 PM 73.4 °F 60.8 °F 65% 30.01 in 6.2 mi SE 10.4 mph - N/A   Partly Cloudy
12:30 PM 75.2 °F 59.0 °F 57% 30.01 in 6.2 mi SSE 11.5 mph - N/A   Partly Cloudy
1:00 PM 75.2 °F 59.0 °F 57% 29.98 in 6.2 mi SSE 13.8 mph - N/A   Partly Cloudy
1:30 PM 77.0 °F 57.2 °F 50% 29.98 in 6.2 mi South 12.7 mph - N/A   Partly Cloudy
2:00 PM 77.0 °F 57.2 °F 50% 29.98 in 6.2 mi SSE 11.5 mph - N/A   Partly Cloudy
2:30 PM 77.0 °F 57.2 °F 50% 29.98 in 6.2 mi South 12.7 mph - N/A   Partly Cloudy
3:00 PM 77.0 °F 57.2 °F 50% 29.95 in 6.2 mi South 13.8 mph - N/A   Partly Cloudy
3:30 PM 77.0 °F 55.4 °F 47% 29.95 in 6.2 mi South 13.8 mph - N/A   Partly Cloudy
4:00 PM 75.2 °F 55.4 °F 50% 29.95 in 6.2 mi South 16.1 mph - N/A   Partly Cloudy
4:30 PM 75.2 °F 55.4 °F 50% 29.95 in 6.2 mi SSW 16.1 mph - N/A   Partly Cloudy
5:00 PM 75.2 °F 57.2 °F 53% 29.95 in 6.2 mi SSW 15.0 mph - N/A   Partly Cloudy
5:30 PM 73.4 °F 57.2 °F 57% 29.95 in 6.2 mi South 18.4 mph - N/A   Partly Cloudy
6:00 PM 71.6 °F 55.4 °F 57% 29.98 in 6.2 mi SSW 17.3 mph - N/A   Partly Cloudy
6:30 PM 69.8 °F 59.0 °F 68% 29.98 in - South 17.3 mph - N/A   Clear
7:00 PM 68.0 °F 60.8 °F 78% 29.98 in 6.2 mi South 15.0 mph - N/A   Partly Cloudy
7:30 PM 68.0 °F 60.8 °F 78% 29.98 in 6.2 mi South 18.4 mph - N/A   Partly Cloudy
8:00 PM 68.0 °F 62.6 °F 83% 29.98 in 6.2 mi South 18.4 mph - N/A   Partly Cloudy
8:30 PM 68.0 °F 62.6 °F 83% 30.01 in 6.2 mi South 15.0 mph - N/A   Partly Cloudy
9:00 PM 68.0 °F 62.6 °F 83% 30.01 in 6.2 mi South 12.7 mph - N/A   Partly Cloudy
9:30 PM 66.2 °F 62.6 °F 88% 30.01 in 6.2 mi South 13.8 mph - N/A   Partly Cloudy
10:00 PM 66.2 °F 60.8 °F 83% 30.01 in - South 13.8 mph - N/A   Clear
10:30 PM 68.0 °F 59.0 °F 73% 30.01 in 6.2 mi South 15.0 mph - N/A   Partly Cloudy
11:00 PM 66.2 °F 60.8 °F 83% 30.01 in 6.2 mi South 13.8 mph - N/A   Partly Cloudy
11:30 PM 66.2 °F 62.6 °F 88% 30.01 in 6.2 mi South 12.7 mph - N/A   Partly Cloudy